Regional Weather Roundup
Issued by NWS

Home | Current Version | Previous Version | Text Only | Print | Product List | Glossary Off
Versions: 1 2 3 4 5 6 7 8 9 10 11 12 13 14 15 16 17 18 19 20 21 22 23 24 25 26 27

000
ASUS45 KPSR 172110
RWRAZ

ARIZONA HOURLY REGIONAL WEATHER ROUNDUP
NATIONAL WEATHER SERVICE PHOENIX AZ
200 PM MST TUE JAN 17 2017

NOTE: FAIR INDICATES FEW OR NO CLOUDS BELOW 12,000 FEET WITH NO
SIGNIFICANT WEATHER AND/OR OBSTRUCTIONS TO VISIBILITY.

AZZ001>003-036-172200-
NORTHWEST ARIZONA

CITY           SKY/WX    TMP DP  RH WIND       PRES   REMARKS
BULLHEAD CITY  SUNNY     59  19  21 N26       30.09F
KINGMAN        SUNNY     51  18  27 N8        30.10F
$$

AZZ004>008-015-016-018-172200-
NORTH CENTRAL ARIZONA

CITY           SKY/WX    TMP DP  RH WIND       PRES   REMARKS
GRAND CANYON   SUNNY     41  27  57 NE10      30.13F
WILLIAMS       CLOUDY    45  27  49 NW5       30.10S
PRESCOTT       PTSUNNY   47  30  51 NE5       30.09F
FLAGSTAFF      PTSUNNY   36  27  69 E7        30.11F WCI  30
PAYSON         PTSUNNY   46  32  57 S3        30.11F
PAGE           SUNNY     45  23  42 NW5       30.14F
$$

AZZ009>014-017-172200-
NORTHEAST ARIZONA

CITY           SKY/WX    TMP DP  RH WIND       PRES   REMARKS
WINSLOW        CLOUDY    47  35  63 NW5       30.12F
SAINT JOHNS    PTSUNNY   47  34  60 NW12      30.07F
SHOW LOW       CLOUDY    39  32  75 N8        30.10S WCI  34
$$

AZZ023-172200-
GREATER PHOENIX AREA

CITY           SKY/WX    TMP DP  RH WIND       PRES   REMARKS
PHOENIX        CLOUDY    59  43  55 NW7       30.04F
BUCKEYE        PTSUNNY   57  41  54 W3        30.06F
GLENDALE       PTSUNNY   61  45  55 CALM      30.06F
LUKE AFB       PTSUNNY   59  45  58 CALM      30.03F
DEER VALLEY    PTSUNNY   60  39  45 CALM      30.04F
SCOTTSDALE     PTSUNNY   58  41  53 CALM      30.05F
MESA-FALCON    MOSUNNY  N/A N/A N/A W12       30.02F
MESA-GATEWAY   PTSUNNY   61  43  51 NW8       30.05F
CHANDLER       SUNNY     59  43  55 N7        30.05F
$$

AZZ027-028-172200-
SOUTHWEST MARICOPA COUNTY AND PINAL COUNTY

CITY           SKY/WX    TMP DP  RH WIND       PRES   REMARKS
CASA GRANDE    PTSUNNY   60  43  53 NW8       30.04F
$$

AZZ503-504-507>509-172200-
SOUTHEAST ARIZONA

CITY           SKY/WX    TMP DP  RH WIND       PRES   REMARKS
TUCSON         SUNNY     63  38  39 CALM      30.03F
DAVIS-MONTHAN  SUNNY     62  40  45 N5        30.01F
NOGALES        MOSUNNY   59  32  36 VRB3      30.01F
SIERRA VISTA   MOSUNNY   57  33  40 VRB3      30.04S
DOUGLAS        PTSUNNY   56  36  47 S9        30.03F
SAFFORD        CLOUDY    55  38  52 W3        30.04F
$$

AZZ020-021-025-026-031-172200-
SOUTHWEST ARIZONA

CITY           SKY/WX    TMP DP  RH WIND       PRES   REMARKS
YUMA           MOSUNNY   66  27  23 N9        30.06F
$$

CAZ031-033-041-043-047-048-061-172200-
SOUTHERN CALIFORNIA

CITY           SKY/WX    TMP DP  RH WIND       PRES   REMARKS
DOWNTOWN L.A.  SUNNY     68  36  30 CALM      30.08S
L.A. AIRPORT   MOSUNNY   63  44  50 W13       30.09S
SAN DIEGO      SUNNY     64  49  57 SW6       30.07F
BURBANK        SUNNY     64  30  27 W6        30.08F
ONTARIO        MOSUNNY   64  34  32 W5        30.06F
RIVERSIDE      SUNNY     67  23  19 VRB5      30.05F
PALM SPRINGS   SUNNY     69  25  19 NE3       30.07F
EL CENTRO NAS  MOSUNNY   66  27  23 N5        30.09F
IMPERIAL       SUNNY     66  32  28 CALM      30.07F
BLYTHE         SUNNY     64  22  20 N12       30.08F
NEEDLES        SUNNY     63  23  21 N16       30.10F
$$

NVZ020-UTZ003-172200-
SOUTHERN NEVADA-UTAH

CITY           SKY/WX    TMP DP  RH WIND       PRES   REMARKS
LAS VEGAS      SUNNY     53  15  22 CALM      30.13F
SALT LAKE CITY MOSUNNY   30  22  72 NW9       30.24F WCI  22
$$

NMZ009-TXZ055-172200-
NEW MEXICO-WEST TEXAS

CITY           SKY/WX    TMP DP  RH WIND       PRES   REMARKS
ALBUQUERQUE    PTSUNNY   48  35  60 W9        30.09F
EL PASO        CLOUDY    52  36  54 N8        30.05F
$$


........................KEY........................
SKY/WX - SKY CONDITION/WEATHER
TMP    - TEMPERATURE IN FAHRENHEIT
DP     - DEW POINT IN FAHRENHEIT
RH     - RELATIVE HUMIDITY IN PERCENT
WIND   - DIRECTION AND SPEED IN MILES PER HOUR (MPH)
VRB    - VARIABLE WIND DIRECTION
PRES   - MEAN SEA LEVEL PRESSURE IN INCHES OF MERCURY
         F - FALLING PRESSURE   R - RISING PRESSURE
         S - STEADY PRESSURE
VSB    - VISIBILITY IN MILES
HX     - HEAT INDEX IN FAHRENHEIT
WCI    - WIND CHILL INDEX IN FAHRENHEIT
TC     - TEMPERATURE IN CELSIUS WHICH IS ALSO KNOWN AS
         TEMPERATURE IN CENTIGRADE
AFB    - AIR FORCE BASE
         LUKE AFB IS LUKE AIR FORCE BASE
         DAVIS-MONTHAN IS DAVIS-MONTHAN AIR FORCE BASE
NAS    - NAVAL AIR STATION
         EL CENTRO NAS IS EL CENTRO NAVAL AIR STATION
N/A    - NOT AVAILABLE





USA.gov is the U.S. government's official web portal to all federal, state and local government web resources and services.